| time (UTC) | temp F | wind direction | speed MPH | gust MPH | rain 1hr in | rain 24hr in | rain mn in | humidity % | barometer mb |
| 20260904223607 | 68 | 298 | 6.0 | 17.0 | 0.00 | 0.00 | 0.00 | 62 | 1015.3 |
| 20260904223107 | 68 | 308 | 4.0 | 11.0 | 0.00 | 0.00 | 0.00 | 63 | 1015.6 |
| 20260904222610 | 68 | 294 | 2.0 | 11.0 | 0.00 | 0.00 | 0.00 | 65 | 1015.6 |
| 20260904222110 | 69 | 305 | 3.0 | 14.0 | 0.00 | 0.00 | 0.00 | 65 | 1015.3 |
| 20260904221607 | 69 | 317 | 5.0 | 16.0 | 0.00 | 0.00 | 0.00 | 64 | 1015.0 |
| 20260904221116 | 70 | 311 | 6.0 | 16.0 | 0.00 | 0.00 | 0.00 | 63 | 1015.0 |
| 20260904220613 | 70 | 283 | 5.0 | 21.0 | 0.00 | 0.00 | 0.00 | 62 | 1014.6 |
| 20260904220110 | 70 | 300 | 8.0 | 23.0 | 0.00 | 0.00 | 0.00 | 61 | 1014.2 |
| 20260904215607 | 71 | 310 | 10.0 | 22.0 | 0.00 | 0.00 | 0.00 | 60 | 1014.2 |
| 20260904215114 | 73 | 320 | 6.0 | 24.0 | 0.00 | 0.00 | 0.00 | 57 | 1013.9 |
| 20260904214607 | 76 | 317 | 8.0 | 16.0 | 0.00 | 0.00 | 0.00 | 51 | 1013.9 |
| 20260904214107 | 76 | 276 | 3.0 | 16.0 | 0.00 | 0.00 | 0.00 | 50 | 1012.9 |
| 20260904213613 | 76 | 274 | 3.0 | 16.0 | 0.00 | 0.00 | 0.00 | 50 | 1012.9 |
| 20260904213110 | 76 | 285 | 6.0 | 14.0 | 0.00 | 0.00 | 0.00 | 50 | 1012.9 |
| 20260904212608 | 76 | 239 | 2.0 | 9.0 | 0.00 | 0.00 | 0.00 | 50 | 1012.5 |
| 20260904212110 | 77 | 257 | 2.0 | 14.0 | 0.00 | 0.00 | 0.00 | 50 | 1012.9 |
| 20260904211607 | 76 | 267 | 6.0 | 14.0 | 0.00 | 0.00 | 0.00 | 50 | 1012.9 |
| 20260904211107 | 76 | 279 | 4.0 | 7.0 | 0.00 | 0.00 | 0.00 | 50 | 1012.5 |
| 20260904210607 | 76 | 282 | 3.0 | 11.0 | 0.00 | 0.00 | 0.00 | 50 | 1012.5 |
| 20260904210110 | 76 | 262 | 2.0 | 6.0 | 0.00 | 0.00 | 0.00 | 50 | 1012.5 |
| 20260904205607 | 76 | 260 | 2.0 | 5.0 | 0.00 | 0.00 | 0.00 | 50 | 1012.5 |
| 20260904205107 | 76 | 264 | 1.0 | 6.0 | 0.00 | 0.00 | 0.00 | 50 | 1012.5 |
| 20260904204607 | 76 | 278 | 2.0 | 7.0 | 0.00 | 0.00 | 0.00 | 50 | 1012.5 |
| 20260904204107 | 76 | 257 | 2.0 | 7.0 | 0.00 | 0.00 | 0.00 | 50 | 1012.5 |
| 20260904203613 | 76 | 258 | 2.0 | 8.0 | 0.00 | 0.00 | 0.00 | 50 | 1012.1 |
| 20260904203107 | 76 | 247 | 2.0 | 8.0 | 0.00 | 0.00 | 0.00 | 50 | 1012.1 |
| 20260904202607 | 76 | 265 | 3.0 | 8.0 | 0.00 | 0.00 | 0.00 | 51 | 1012.1 |
| 20260904202107 | 75 | 262 | 2.0 | 5.0 | 0.00 | 0.00 | 0.00 | 51 | 1012.1 |
| 20260904201610 | 75 | 258 | 1.0 | 7.0 | 0.00 | 0.00 | 0.00 | 52 | 1012.1 |
| 20260904201110 | 75 | 271 | 1.0 | 5.0 | 0.00 | 0.00 | 0.00 | 52 | 1012.1 |
| 20260904200610 | 75 | 251 | 1.0 | 6.0 | 0.00 | 0.00 | 0.00 | 53 | 1012.1 |
| 20260904200110 | 75 | 260 | 0.0 | 3.0 | 0.00 | 0.00 | 0.00 | 53 | 1012.1 |
| 20260904195610 | 75 | 222 | 1.0 | 4.0 | 0.00 | 0.00 | 0.00 | 53 | 1012.1 |
| 20260904195107 | 75 | 224 | 0.0 | 4.0 | 0.00 | 0.00 | 0.00 | 53 | 1012.1 |
| 20260904194607 | 75 | 242 | 2.0 | 4.0 | 0.00 | 0.00 | 0.00 | 54 | 1012.1 |
| 20260904194107 | 75 | 245 | 1.0 | 3.0 | 0.00 | 0.00 | 0.00 | 54 | 1012.1 |
| 20260904193607 | 75 | 252 | 0.0 | 3.0 | 0.00 | 0.00 | 0.00 | 55 | 1012.1 |
| 20260904193110 | 75 | 267 | 0.0 | 1.0 | 0.00 | 0.00 | 0.00 | 55 | 1012.1 |
| 20260904192610 | 75 | 167 | 0.0 | 2.0 | 0.00 | 0.00 | 0.00 | 54 | 1012.1 |
| 20260904192107 | 75 | 166 | 1.0 | 3.0 | 0.00 | 0.00 | 0.00 | 54 | 1011.8 |
| 20260904191608 | 75 | 127 | 0.0 | 1.0 | 0.00 | 0.00 | 0.00 | 53 | 1011.8 |
| 20260904191113 | 76 | 112 | 1.0 | 1.0 | 0.00 | 0.00 | 0.00 | 53 | 1011.8 |
| 20260904190607 | 76 | 203 | 0.0 | 3.0 | 0.00 | 0.00 | 0.00 | 53 | 1011.8 |
| 20260904190111 | 76 | 156 | 2.0 | 3.0 | 0.00 | 0.00 | 0.00 | 52 | 1011.8 |
| 20260904185610 | 76 | 175 | 0.0 | 1.0 | 0.00 | 0.00 | 0.00 | 52 | 1011.8 |
| 20260904185108 | 76 | 92 | 0.0 | 1.0 | 0.00 | 0.00 | 0.00 | 52 | 1011.8 |
| 20260904184610 | 76 | 356 | 0.0 | 1.0 | 0.00 | 0.00 | 0.00 | 52 | 1011.8 |
| 20260904184116 | 77 | 150 | 0.0 | 2.0 | 0.00 | 0.00 | 0.00 | 51 | 1011.8 |
| 20260904183607 | 77 | 138 | 0.0 | 1.0 | 0.00 | 0.00 | 0.00 | 51 | 1011.8 |
| 20260904183107 | 77 | 192 | 0.0 | 1.0 | 0.00 | 0.00 | 0.00 | 50 | 1011.8 |
| 20260904182607 | 77 | 227 | 0.0 | 1.0 | 0.00 | 0.00 | 0.00 | 50 | 1011.8 |
| 20260904182107 | 78 | 259 | 0.0 | 1.0 | 0.00 | 0.00 | 0.00 | 50 | 1011.4 |
| 20260904181610 | 78 | 218 | 0.0 | 2.0 | 0.00 | 0.00 | 0.00 | 49 | 1011.4 |
| 20260904181107 | 78 | 211 | 1.0 | 2.0 | 0.00 | 0.00 | 0.00 | 48 | 1011.4 |
| 20260904180610 | 78 | 264 | 0.0 | 2.0 | 0.00 | 0.00 | 0.00 | 48 | 1011.4 |
| 20260904180110 | 79 | 224 | 0.0 | 3.0 | 0.00 | 0.00 | 0.00 | 47 | 1011.4 |
| 20260904175610 | 79 | 229 | 1.0 | 3.0 | 0.00 | 0.00 | 0.00 | 47 | 1011.4 |
| 20260904175107 | 80 | 265 | 1.0 | 3.0 | 0.00 | 0.00 | 0.00 | 46 | 1011.4 |
| 20260904174607 | 80 | 148 | 0.0 | 6.0 | 0.00 | 0.00 | 0.00 | 46 | 1011.4 |
| 20260904174107 | 80 | 215 | 1.0 | 5.0 | 0.00 | 0.00 | 0.00 | 45 | 1011.4 |
| 20260904173607 | 80 | 208 | 1.0 | 4.0 | 0.00 | 0.00 | 0.00 | 45 | 1011.4 |
| 20260904173110 | 81 | 277 | 1.0 | 4.0 | 0.00 | 0.00 | 0.00 | 44 | 1011.4 |
| 20260904172613 | 81 | 214 | 1.0 | 6.0 | 0.00 | 0.00 | 0.00 | 44 | 1011.4 |
| 20260904172110 | 81 | 212 | 2.0 | 5.0 | 0.00 | 0.00 | 0.00 | 44 | 1011.4 |
| 20260904171607 | 81 | 226 | 2.0 | 9.0 | 0.00 | 0.00 | 0.00 | 43 | 1011.4 |
| 20260904171107 | 82 | 240 | 1.0 | 7.0 | 0.00 | 0.00 | 0.00 | 43 | 1011.4 |
| 20260904170611 | 82 | 238 | 2.0 | 8.0 | 0.00 | 0.00 | 0.00 | 42 | 1011.4 |
| 20260904170110 | 82 | 220 | 1.0 | 3.0 | 0.00 | 0.00 | 0.00 | 43 | 1011.4 |
| 20260904165607 | 82 | 262 | 1.0 | 4.0 | 0.00 | 0.00 | 0.00 | 43 | 1011.8 |
| 20260904165107 | 82 | 170 | 0.0 | 5.0 | 0.00 | 0.00 | 0.00 | 43 | 1011.8 |
| 20260904164616 | 82 | 233 | 3.0 | 6.0 | 0.00 | 0.00 | 0.00 | 42 | 1011.8 |
| 20260904164107 | 82 | 251 | 2.0 | 7.0 | 0.00 | 0.00 | 0.00 | 41 | 1011.8 |
| 20260904163610 | 82 | 271 | 3.0 | 7.0 | 0.00 | 0.00 | 0.00 | 41 | 1011.8 |
| 20260904163110 | 83 | 248 | 3.0 | 11.0 | 0.00 | 0.00 | 0.00 | 41 | 1011.8 |
| 20260904162607 | 83 | 254 | 3.0 | 7.0 | 0.00 | 0.00 | 0.00 | 41 | 1011.8 |
| 20260904162107 | 83 | 262 | 1.0 | 11.0 | 0.00 | 0.00 | 0.00 | 40 | 1011.8 |
| 20260904161610 | 83 | 271 | 4.0 | 12.0 | 0.00 | 0.00 | 0.00 | 40 | 1011.8 |
| 20260904161113 | 83 | 260 | 2.0 | 11.0 | 0.00 | 0.00 | 0.00 | 40 | 1011.8 |
| 20260904160607 | 83 | 268 | 4.0 | 14.0 | 0.00 | 0.00 | 0.00 | 39 | 1011.8 |
| 20260904160110 | 83 | 294 | 6.0 | 13.0 | 0.00 | 0.00 | 0.00 | 39 | 1011.4 |
| 20260904155607 | 84 | 265 | 2.0 | 11.0 | 0.00 | 0.00 | 0.00 | 39 | 1011.8 |
| 20260904155107 | 84 | 262 | 4.0 | 14.0 | 0.00 | 0.00 | 0.00 | 38 | 1011.8 |
| 20260904154613 | 85 | 261 | 5.0 | 19.0 | 0.00 | 0.00 | 0.00 | 37 | 1011.4 |
| 20260904154110 | 85 | 253 | 4.0 | 16.0 | 0.00 | 0.00 | 0.00 | 36 | 1011.4 |
| 20260904153613 | 86 | 279 | 4.0 | 11.0 | 0.00 | 0.00 | 0.00 | 35 | 1011.4 |
| 20260904153110 | 86 | 259 | 2.0 | 12.0 | 0.00 | 0.00 | 0.00 | 37 | 1011.4 |
| 20260904152614 | 86 | 222 | 4.0 | 12.0 | 0.00 | 0.00 | 0.00 | 37 | 1011.4 |
| 20260904152113 | 86 | 243 | 4.0 | 10.0 | 0.00 | 0.01 | 0.00 | 37 | 1011.4 |
| 20260904151607 | 85 | 201 | 1.0 | 8.0 | 0.00 | 0.01 | 0.00 | 37 | 1011.4 |
| 20260904151110 | 85 | 241 | 2.0 | 12.0 | 0.00 | 0.01 | 0.00 | 38 | 1011.4 |
| 20260904150610 | 86 | 262 | 5.0 | 12.0 | 0.00 | 0.01 | 0.00 | 37 | 1011.4 |
| 20260904150107 | 86 | 220 | 2.0 | 11.0 | 0.00 | 0.01 | 0.00 | 37 | 1011.4 |
| 20260904145613 | 86 | 237 | 4.0 | 12.0 | 0.00 | 0.01 | 0.00 | 37 | 1011.8 |
| 20260904145108 | 85 | 238 | 1.0 | 15.0 | 0.00 | 0.01 | 0.00 | 37 | 1011.8 |
| 20260904144613 | 85 | 265 | 4.0 | 15.0 | 0.00 | 0.01 | 0.00 | 37 | 1011.8 |
| 20260904144107 | 85 | 240 | 1.0 | 14.0 | 0.00 | 0.01 | 0.00 | 37 | 1011.8 |
| 20260904143607 | 86 | 255 | 4.0 | 8.0 | 0.00 | 0.04 | 0.00 | 36 | 1011.8 |
| 20260904143113 | 85 | 242 | 4.0 | 13.0 | 0.00 | 0.07 | 0.00 | 37 | 1012.1 |
| 20260904142607 | 86 | 228 | 3.0 | 10.0 | 0.00 | 0.10 | 0.00 | 38 | 1012.1 |
| 20260904142113 | 85 | 260 | 2.0 | 10.0 | 0.00 | 0.12 | 0.00 | 39 | 1012.1 |
| 20260904141613 | 85 | 235 | 3.0 | 13.0 | 0.00 | 0.13 | 0.00 | 39 | 1012.1 |
| 20260904141110 | 84 | 249 | 5.0 | 11.0 | 0.00 | 0.13 | 0.00 | 39 | 1012.1 |
| 20260904140616 | 84 | 240 | 3.0 | 10.0 | 0.00 | 0.14 | 0.00 | 39 | 1012.1 |
| 20260904140110 | 85 | 194 | 4.0 | 10.0 | 0.00 | 0.14 | 0.00 | 39 | 1012.5 |
| 20260904135614 | 84 | 264 | 3.0 | 9.0 | 0.00 | 0.14 | 0.00 | 39 | 1012.5 |
| 20260904135108 | 85 | 181 | 4.0 | 12.0 | 0.00 | 0.15 | 0.00 | 39 | 1012.5 |
| 20260904134611 | 84 | 180 | 3.0 | 13.0 | 0.00 | 0.15 | 0.00 | 39 | 1012.5 |
| 20260904134108 | 84 | 194 | 3.0 | 15.0 | 0.00 | 0.15 | 0.00 | 40 | 1012.5 |
| 20260904133610 | 84 | 240 | 5.0 | 11.0 | 0.00 | 0.16 | 0.00 | 39 | 1012.5 |
| 20260904133107 | 84 | 239 | 4.0 | 13.0 | 0.00 | 0.16 | 0.00 | 40 | 1012.5 |
| 20260904132613 | 84 | 240 | 2.0 | 11.0 | 0.00 | 0.16 | 0.00 | 39 | 1012.9 |
| 20260904132110 | 84 | 232 | 2.0 | 13.0 | 0.00 | 0.16 | 0.00 | 40 | 1012.9 |
| 20260904131610 | 84 | 265 | 3.0 | 9.0 | 0.00 | 0.16 | 0.00 | 40 | 1012.9 |
| 20260904131107 | 84 | 263 | 2.0 | 14.0 | 0.00 | 0.17 | 0.00 | 40 | 1012.9 |
| 20260904130613 | 83 | 246 | 6.0 | 14.0 | 0.00 | 0.18 | 0.00 | 40 | 1013.2 |
| 20260904130110 | 83 | 238 | 4.0 | 13.0 | 0.00 | 0.18 | 0.00 | 41 | 1013.2 |
| 20260904125610 | 83 | 255 | 6.0 | 19.0 | 0.00 | 0.19 | 0.00 | 41 | 1013.2 |
| 20260904125107 | 83 | 279 | 6.0 | 17.0 | 0.00 | 0.19 | 0.00 | 41 | 1013.2 |
| 20260904124608 | 82 | 252 | 6.0 | 17.0 | 0.00 | 0.19 | 0.00 | 42 | 1013.2 |
| 20260904124111 | 82 | 256 | 3.0 | 13.0 | 0.00 | 0.19 | 0.00 | 41 | 1013.5 |
| 20260904123610 | 83 | 215 | 4.0 | 11.0 | 0.00 | 0.19 | 0.00 | 41 | 1013.5 |
| 20260904123110 | 82 | 268 | 4.0 | 11.0 | 0.00 | 0.20 | 0.00 | 42 | 1013.9 |
| 20260904122611 | 82 | 254 | 3.0 | 15.0 | 0.00 | 0.20 | 0.00 | 43 | 1013.9 |
| 20260904122110 | 82 | 289 | 4.0 | 16.0 | 0.00 | 0.20 | 0.00 | 43 | 1013.9 |
| 20260904121610 | 82 | 295 | 5.0 | 12.0 | 0.00 | 0.20 | 0.00 | 44 | 1013.9 |
| 20260904121110 | 81 | 252 | 6.0 | 12.0 | 0.00 | 0.20 | 0.00 | 45 | 1013.9 |
| 20260904120610 | 80 | 251 | 7.0 | 12.0 | 0.00 | 0.20 | 0.00 | 45 | 1014.2 |
| 20260904120111 | 81 | 254 | 2.0 | 13.0 | 0.00 | 0.20 | 0.00 | 45 | 1014.2 |
| 20260904115608 | 81 | 236 | 1.0 | 10.0 | 0.00 | 0.20 | 0.00 | 46 | 1014.2 |
| 20260904115110 | 80 | 230 | 2.0 | 9.0 | 0.00 | 0.20 | 0.00 | 45 | 1014.2 |
| 20260904114614 | 80 | 260 | 2.0 | 9.0 | 0.00 | 0.20 | 0.00 | 47 | 1014.6 |
| 20260904114113 | 79 | 259 | 5.0 | 17.0 | 0.00 | 0.20 | 0.00 | 47 | 1014.6 |
| 20260904113608 | 79 | 267 | 7.0 | 17.0 | 0.00 | 0.20 | 0.00 | 47 | 1014.6 |
| 20260904113110 | 79 | 263 | 3.0 | 15.0 | 0.00 | 0.20 | 0.00 | 48 | 1014.6 |
| 20260904112610 | 79 | 251 | 2.0 | 12.0 | 0.00 | 0.20 | 0.00 | 48 | 1014.6 |
| 20260904112107 | 79 | 253 | 5.0 | 12.0 | 0.00 | 0.20 | 0.00 | 47 | 1014.6 |
| 20260904111607 | 80 | 193 | 3.0 | 9.0 | 0.00 | 0.20 | 0.00 | 47 | 1014.6 |
| 20260904111107 | 80 | 191 | 4.0 | 11.0 | 0.00 | 0.20 | 0.00 | 47 | 1014.6 |
| 20260904110607 | 80 | 232 | 2.0 | 11.0 | 0.00 | 0.20 | 0.00 | 49 | 1015.0 |
| 20260904110110 | 78 | 254 | 4.0 | 14.0 | 0.00 | 0.20 | 0.00 | 49 | 1015.0 |
| 20260904105607 | 79 | 223 | 2.0 | 11.0 | 0.00 | 0.20 | 0.00 | 50 | 1015.0 |
| 20260904105113 | 79 | 208 | 2.0 | 10.0 | 0.00 | 0.20 | 0.00 | 49 | 1015.0 |
| 20260904104607 | 79 | 219 | 1.0 | 14.0 | 0.00 | 0.20 | 0.00 | 50 | 1015.0 |
| 20260904104113 | 80 | 257 | 5.0 | 14.0 | 0.00 | 0.20 | 0.00 | 48 | 1015.0 |
| 20260904103610 | 79 | 256 | 1.0 | 12.0 | 0.00 | 0.20 | 0.00 | 51 | 1015.0 |
| 20260904103107 | 78 | 224 | 3.0 | 15.0 | 0.00 | 0.20 | 0.00 | 52 | 1015.0 |
| 20260904102613 | 78 | 227 | 2.0 | 11.0 | 0.00 | 0.20 | 0.00 | 54 | 1015.0 |
| 20260904102116 | 77 | 265 | 5.0 | 11.0 | 0.00 | 0.20 | 0.00 | 54 | 1015.3 |
| 20260904101610 | 76 | 256 | 2.0 | 10.0 | 0.00 | 0.20 | 0.00 | 55 | 1015.3 |
| 20260904101113 | 76 | 220 | 3.0 | 16.0 | 0.00 | 0.20 | 0.00 | 55 | 1015.3 |
| 20260904100610 | 76 | 226 | 3.0 | 9.0 | 0.00 | 0.20 | 0.00 | 56 | 1015.6 |
| 20260904100116 | 76 | 172 | 3.0 | 14.0 | 0.00 | 0.20 | 0.00 | 56 | 1015.6 |
| 20260904095607 | 76 | 238 | 4.0 | 10.0 | 0.00 | 0.20 | 0.00 | 56 | 1015.6 |
| 20260904095107 | 76 | 264 | 4.0 | 10.0 | 0.00 | 0.20 | 0.00 | 55 | 1015.6 |
| 20260904094607 | 76 | 239 | 3.0 | 8.0 | 0.00 | 0.20 | 0.00 | 56 | 1016.0 |
| 20260904094107 | 75 | 244 | 3.0 | 9.0 | 0.00 | 0.20 | 0.00 | 57 | 1016.0 |
| 20260904093611 | 75 | 242 | 4.0 | 9.0 | 0.00 | 0.20 | 0.00 | 57 | 1016.0 |
| 20260904093110 | 75 | 266 | 1.0 | 12.0 | 0.00 | 0.20 | 0.00 | 57 | 1016.0 |
| 20260904092617 | 75 | 221 | 4.0 | 12.0 | 0.00 | 0.20 | 0.00 | 57 | 1016.0 |
| 20260904092107 | 75 | 227 | 2.0 | 8.0 | 0.00 | 0.20 | 0.00 | 57 | 1016.3 |
| 20260904091607 | 75 | 236 | 3.0 | 11.0 | 0.00 | 0.20 | 0.00 | 57 | 1016.3 |
| 20260904091107 | 74 | 258 | 3.0 | 11.0 | 0.00 | 0.20 | 0.00 | 58 | 1016.3 |
| 20260904090607 | 74 | 264 | 2.0 | 8.0 | 0.00 | 0.20 | 0.00 | 59 | 1016.3 |
| 20260904090107 | 74 | 213 | 1.0 | 5.0 | 0.00 | 0.20 | 0.00 | 62 | 1016.3 |
| 20260904085610 | 73 | 232 | 1.0 | 5.0 | 0.00 | 0.20 | 0.00 | 62 | 1016.3 |
| 20260904085111 | 72 | 183 | 0.0 | 5.0 | 0.00 | 0.20 | 0.00 | 64 | 1016.7 |
| 20260904084610 | 71 | 242 | 2.0 | 6.0 | 0.00 | 0.20 | 0.00 | 65 | 1016.7 |
| 20260904084107 | 71 | 199 | 2.0 | 9.0 | 0.00 | 0.20 | 0.00 | 65 | 1016.7 |
| 20260904083610 | 70 | 199 | 4.0 | 7.0 | 0.00 | 0.20 | 0.00 | 67 | 1016.7 |
| 20260904083107 | 70 | 171 | 2.0 | 3.0 | 0.00 | 0.20 | 0.00 | 68 | 1016.7 |
| 20260904082610 | 70 | 201 | 0.0 | 4.0 | 0.00 | 0.20 | 0.00 | 69 | 1016.7 |
| 20260904082111 | 69 | 167 | 1.0 | 4.0 | 0.00 | 0.20 | 0.00 | 70 | 1016.7 |
| 20260904081607 | 69 | 246 | 1.0 | 4.0 | 0.00 | 0.20 | 0.00 | 70 | 1017.1 |
| 20260904081110 | 69 | 247 | 2.0 | 5.0 | 0.00 | 0.20 | 0.00 | 70 | 1017.1 |
| 20260904080610 | 69 | 258 | 1.0 | 3.0 | 0.00 | 0.20 | 0.00 | 70 | 1017.1 |
| 20260904080110 | 69 | 271 | 1.0 | 3.0 | 0.00 | 0.20 | 0.00 | 71 | 1017.1 |
| 20260904075610 | 69 | 259 | 1.0 | 4.0 | 0.00 | 0.20 | 0.00 | 71 | 1017.1 |
| 20260904075113 | 69 | 247 | 1.0 | 4.0 | 0.00 | 0.20 | 0.00 | 71 | 1017.1 |
| 20260904074610 | 68 | 273 | 1.0 | 4.0 | 0.00 | 0.20 | 0.00 | 71 | 1017.1 |
| 20260904074110 | 68 | 213 | 0.0 | 4.0 | 0.00 | 0.20 | 0.00 | 72 | 1017.1 |
| 20260904073607 | 68 | 220 | 1.0 | 4.0 | 0.00 | 0.20 | 0.00 | 72 | 1017.4 |
| 20260904073107 | 68 | 205 | 1.0 | 5.0 | 0.00 | 0.20 | 0.00 | 72 | 1017.4 |
| 20260904072607 | 67 | 236 | 1.0 | 4.0 | 0.00 | 0.20 | 0.00 | 72 | 1017.4 |
| 20260904072108 | 67 | 241 | 1.0 | 3.0 | 0.00 | 0.20 | 0.00 | 73 | 1017.4 |
| 20260904071611 | 67 | 253 | 1.0 | 5.0 | 0.00 | 0.20 | 0.00 | 73 | 1017.4 |
| 20260904071110 | 67 | 247 | 1.0 | 4.0 | 0.00 | 0.20 | 0.00 | 74 | 1017.4 |
| 20260904070608 | 66 | 199 | 0.0 | 4.0 | 0.00 | 0.20 | 0.00 | 75 | 1017.4 |
| 20260904070107 | 66 | 241 | 0.0 | 4.0 | 0.00 | 0.20 | 0.00 | 76 | 1017.4 |
| 20260904065610 | 65 | 242 | 2.0 | 4.0 | 0.00 | 0.20 | 0.00 | 77 | 1017.4 |
| 20260904065114 | 65 | 247 | 1.0 | 4.0 | 0.00 | 0.20 | 0.00 | 77 | 1017.4 |
| 20260904064610 | 64 | 247 | 0.0 | 3.0 | 0.00 | 0.20 | 0.00 | 79 | 1017.1 |
| 20260904064107 | 64 | 275 | 1.0 | 2.0 | 0.00 | 0.20 | 0.00 | 80 | 1017.4 |
| 20260904063613 | 64 | 237 | 1.0 | 2.0 | 0.00 | 0.20 | 0.00 | 80 | 1017.4 |
| 20260904063107 | 63 | 196 | 1.0 | 3.0 | 0.00 | 0.20 | 0.00 | 81 | 1017.1 |
| 20260904062607 | 63 | 192 | 1.0 | 2.0 | 0.00 | 0.20 | 0.00 | 81 | 1017.4 |
| 20260904062110 | 63 | 173 | 0.0 | 2.0 | 0.00 | 0.20 | 0.00 | 82 | 1017.4 |
| 20260904061607 | 62 | 168 | 1.0 | 2.0 | 0.00 | 0.20 | 0.00 | 83 | 1017.4 |
| 20260904061107 | 62 | 158 | 0.0 | 2.0 | 0.00 | 0.20 | 0.00 | 84 | 1017.4 |
| 20260904060608 | 62 | 122 | 0.0 | 2.0 | 0.00 | 0.20 | 0.00 | 84 | 1017.4 |
| 20260904060107 | 61 | 212 | 0.0 | 1.0 | 0.00 | 0.20 | 0.00 | 85 | 1017.4 |
| 20260904055611 | 61 | 168 | 0.0 | 2.0 | 0.00 | 0.20 | 0.00 | 84 | 1017.4 |
| 20260904055107 | 61 | 138 | 0.0 | 1.0 | 0.00 | 0.20 | 0.00 | 85 | 1017.4 |
| 20260904054611 | 61 | 336 | 0.0 | 1.0 | 0.00 | 0.20 | 0.00 | 85 | 1017.4 |
| 20260904054107 | 60 | 170 | 0.0 | 1.0 | 0.00 | 0.20 | 0.00 | 85 | 1017.4 |
| 20260904053607 | 60 | 207 | 0.0 | 1.0 | 0.00 | 0.20 | 0.00 | 86 | 1017.4 |
| 20260904053110 | 60 | 213 | 0.0 | 1.0 | 0.00 | 0.20 | 0.00 | 86 | 1017.4 |
| 20260904052616 | 60 | 63 | 0.0 | 1.0 | 0.00 | 0.20 | 0.00 | 86 | 1017.4 |
| 20260904052107 | 60 | 301 | 0.0 | 1.0 | 0.00 | 0.20 | 0.00 | 86 | 1017.4 |
| 20260904051613 | 60 | 315 | 0.0 | 1.0 | 0.00 | 0.20 | 0.00 | 86 | 1017.4 |
| 20260904051107 | 60 | 142 | 0.0 | 1.0 | 0.00 | 0.20 | 0.00 | 86 | 1017.4 |
| 20260904050607 | 60 | 162 | 0.0 | 1.0 | 0.00 | 0.20 | 0.00 | 87 | 1017.4 |
| 20260904050113 | 59 | 171 | 1.0 | 1.0 | 0.00 | 0.20 | 0.00 | 87 | 1017.4 |
| 20260904045613 | 59 | 107 | 0.0 | 2.0 | 0.00 | 0.20 | 0.00 | 87 | 1017.4 |
| 20260904045110 | 59 | 165 | 1.0 | 2.0 | 0.00 | 0.20 | 0.00 | 87 | 1017.4 |
| 20260904044611 | 59 | 143 | 0.0 | 2.0 | 0.00 | 0.20 | 0.00 | 88 | 1017.4 |
| 20260904044107 | 59 | 96 | 1.0 | 2.0 | 0.00 | 0.20 | 0.00 | 88 | 1017.4 |
| 20260904043610 | 59 | 57 | 0.0 | 2.0 | 0.00 | 0.20 | 0.00 | 88 | 1017.4 |
| 20260904043116 | 59 | 53 | 1.0 | 3.0 | 0.00 | 0.20 | 0.00 | 88 | 1017.4 |
| 20260904042607 | 59 | 41 | 1.0 | 3.0 | 0.00 | 0.20 | 0.00 | 88 | 1017.7 |
| 20260904042107 | 59 | 115 | 0.0 | 2.0 | 0.00 | 0.20 | 0.00 | 88 | 1017.7 |
| 20260904041608 | 58 | 138 | 1.0 | 1.0 | 0.00 | 0.20 | 0.00 | 88 | 1017.7 |
| 20260904041113 | 58 | 103 | 0.0 | 1.0 | 0.00 | 0.20 | 0.00 | 88 | 1017.7 |
| 20260904040607 | 58 | 155 | 0.0 | 1.0 | 0.00 | 0.20 | 0.00 | 88 | 1017.7 |
| 20260904040107 | 58 | 260 | 0.0 | 1.0 | 0.00 | 0.20 | 0.00 | 88 | 1017.7 |
| 20260904035607 | 58 | 333 | 0.0 | 2.0 | 0.00 | 0.20 | 0.00 | 88 | 1017.7 |
| 20260904035107 | 58 | 72 | 2.0 | 2.0 | 0.00 | 0.20 | 0.00 | 89 | 1017.7 |
| 20260904034610 | 58 | 86 | 1.0 | 2.0 | 0.00 | 0.20 | 0.00 | 89 | 1017.7 |
| 20260904034116 | 58 | 47 | 1.0 | 3.0 | 0.00 | 0.20 | 0.00 | 89 | 1017.7 |
| 20260904033611 | 58 | 85 | 0.0 | 3.0 | 0.00 | 0.20 | 0.00 | 89 | 1017.7 |
| 20260904033113 | 58 | 40 | 0.0 | 3.0 | 0.00 | 0.20 | 0.00 | 89 | 1017.7 |
| 20260904032610 | 58 | 70 | 1.0 | 3.0 | 0.00 | 0.20 | 0.00 | 89 | 1017.7 |
| 20260904032111 | 58 | 85 | 1.0 | 2.0 | 0.00 | 0.20 | 0.00 | 89 | 1017.7 |
| 20260904031607 | 58 | 109 | 0.0 | 2.0 | 0.00 | 0.20 | 0.00 | 89 | 1017.7 |
| 20260904031110 | 58 | 185 | 0.0 | 2.0 | 0.00 | 0.20 | 0.00 | 89 | 1017.7 |
| 20260904030610 | 58 | 77 | 1.0 | 2.0 | 0.00 | 0.20 | 0.00 | 89 | 1017.7 |
| 20260904030107 | 58 | 58 | 0.0 | 3.0 | 0.00 | 0.20 | 0.00 | 89 | 1017.7 |
| 20260904025610 | 58 | 79 | 1.0 | 3.0 | 0.00 | 0.20 | 0.00 | 90 | 1017.7 |
| 20260904025107 | 58 | 87 | 1.0 | 2.0 | 0.00 | 0.20 | 0.00 | 90 | 1018.1 |
| 20260904024610 | 58 | 297 | 1.0 | 1.0 | 0.00 | 0.20 | 0.00 | 90 | 1018.1 |
| 20260904024107 | 58 | 147 | 0.0 | 2.0 | 0.00 | 0.20 | 0.00 | 90 | 1018.1 |
| 20260904023607 | 58 | 160 | 0.0 | 2.0 | 0.00 | 0.20 | 0.00 | 89 | 1018.1 |
| 20260904023107 | 58 | 202 | 0.0 | 2.0 | 0.00 | 0.20 | 0.00 | 89 | 1018.1 |
| 20260904022610 | 58 | 181 | 0.0 | 2.0 | 0.00 | 0.20 | 0.00 | 89 | 1018.1 |
| 20260904022110 | 59 | 101 | 1.0 | 2.0 | 0.00 | 0.20 | 0.00 | 89 | 1018.1 |
| 20260904021607 | 59 | 74 | 0.0 | 2.0 | 0.00 | 0.20 | 0.00 | 89 | 1018.1 |
| 20260904021107 | 59 | 179 | 1.0 | 2.0 | 0.00 | 0.20 | 0.00 | 89 | 1018.1 |
| 20260904020607 | 59 | 86 | 1.0 | 2.0 | 0.00 | 0.20 | 0.00 | 89 | 1018.1 |
| 20260904020110 | 59 | 53 | 1.0 | 2.0 | 0.00 | 0.20 | 0.00 | 89 | 1018.1 |
| 20260904015608 | 59 | 51 | 0.0 | 1.0 | 0.00 | 0.20 | 0.00 | 89 | 1018.1 |
| 20260904015110 | 59 | 139 | 0.0 | 2.0 | 0.00 | 0.20 | 0.00 | 89 | 1018.1 |
| 20260904014607 | 59 | 52 | 1.0 | 2.0 | 0.00 | 0.20 | 0.00 | 89 | 1018.1 |
| 20260904014107 | 59 | 139 | 0.0 | 1.0 | 0.00 | 0.20 | 0.00 | 89 | 1018.4 |
| 20260904013613 | 59 | 131 | 1.0 | 1.0 | 0.00 | 0.20 | 0.00 | 89 | 1018.4 |
| 20260904013107 | 59 | 204 | 0.0 | 1.0 | 0.00 | 0.20 | 0.00 | 89 | 1018.4 |
| 20260904012607 | 60 | 179 | 0.0 | 1.0 | 0.00 | 0.20 | 0.00 | 89 | 1018.1 |
| 20260904012107 | 60 | 187 | 1.0 | 2.0 | 0.00 | 0.20 | 0.00 | 89 | 1018.1 |
| 20260904011610 | 60 | 129 | 0.0 | 2.0 | 0.00 | 0.20 | 0.00 | 89 | 1018.1 |
| 20260904011107 | 60 | 90 | 0.0 | 2.0 | 0.00 | 0.20 | 0.00 | 88 | 1018.1 |
| 20260904010607 | 60 | 169 | 0.0 | 1.0 | 0.00 | 0.20 | 0.00 | 88 | 1018.4 |
| 20260904010113 | 60 | 161 | 1.0 | 3.0 | 0.00 | 0.20 | 0.00 | 89 | 1018.4 |
| 20260904005616 | 60 | 157 | 0.0 | 3.0 | 0.00 | 0.20 | 0.00 | 89 | 1018.4 |
| 20260904005110 | 60 | 76 | 2.0 | 3.0 | 0.00 | 0.20 | 0.00 | 89 | 1018.4 |
| 20260904004610 | 60 | 68 | 1.0 | 3.0 | 0.00 | 0.20 | 0.00 | 88 | 1018.4 |
| 20260904004110 | 60 | 86 | 0.0 | 2.0 | 0.00 | 0.20 | 0.00 | 88 | 1018.4 |
| 20260904003607 | 60 | 114 | 0.0 | 3.0 | 0.00 | 0.20 | 0.00 | 89 | 1018.4 |
| 20260904003110 | 60 | 347 | 1.0 | 2.0 | 0.00 | 0.20 | 0.00 | 89 | 1018.8 |
| 20260904002607 | 60 | 10 | 0.0 | 3.0 | 0.00 | 0.20 | 0.00 | 89 | 1018.8 |
| 20260904002110 | 60 | 88 | 1.0 | 4.0 | 0.00 | 0.20 | 0.00 | 89 | 1018.8 |
| 20260904001613 | 60 | 45 | 1.0 | 2.0 | 0.00 | 0.20 | 0.00 | 89 | 1018.8 |
| 20260904001110 | 60 | 161 | 1.0 | 3.0 | 0.00 | 0.20 | 0.00 | 89 | 1018.8 |
| 20260904000607 | 61 | 68 | 1.0 | 3.0 | 0.00 | 0.20 | 0.00 | 89 | 1018.8 |
| 20260904000110 | 61 | 172 | 0.0 | 1.0 | 0.00 | 0.20 | 0.00 | 89 | 1018.8 |
| 20260903235610 | 61 | 33 | 0.0 | 1.0 | 0.00 | 0.20 | 0.00 | 89 | 1018.8 |
| 20260903235107 | 61 | 178 | 0.0 | 3.0 | 0.00 | 0.20 | 0.00 | 89 | 1019.2 |
| 20260903234607 | 61 | 138 | 1.0 | 2.0 | 0.00 | 0.20 | 0.00 | 89 | 1019.2 |
| 20260903234113 | 61 | 98 | 1.0 | 2.0 | 0.00 | 0.20 | 0.00 | 89 | 1019.2 |
| 20260903233613 | 61 | 32 | 0.0 | 2.0 | 0.00 | 0.20 | 0.00 | 89 | 1019.2 |
| 20260903233107 | 61 | 73 | 1.0 | 2.0 | 0.00 | 0.20 | 0.00 | 88 | 1019.2 |
| 20260903232608 | 61 | 167 | 0.0 | 2.0 | 0.00 | 0.20 | 0.00 | 88 | 1019.2 |
| 20260903232110 | 61 | 148 | 1.0 | 2.0 | 0.00 | 0.20 | 0.00 | 88 | 1019.2 |
| 20260903231610 | 61 | 121 | 0.0 | 2.0 | 0.00 | 0.20 | 0.00 | 88 | 1019.5 |
| 20260903231107 | 61 | 252 | 0.0 | 2.0 | 0.00 | 0.20 | 0.00 | 88 | 1019.5 |
| 20260903230610 | 61 | 109 | 1.0 | 3.0 | 0.00 | 0.20 | 0.00 | 88 | 1019.2 |
| 20260903230107 | 62 | 84 | 2.0 | 3.0 | 0.00 | 0.20 | 0.00 | 88 | 1019.2 |
| 20260903225607 | 62 | 104 | 1.0 | 3.0 | 0.00 | 0.20 | 0.00 | 88 | 1019.2 |
| 20260903225113 | 62 | 86 | 1.0 | 1.0 | 0.00 | 0.20 | 0.00 | 88 | 1019.5 |
| 20260903224613 | 62 | 78 | 0.0 | 3.0 | 0.00 | 0.20 | 0.00 | 88 | 1019.5 |
| 20260903224107 | 62 | 162 | 2.0 | 3.0 | 0.00 | 0.20 | 0.00 | 88 | 1019.5 |